ヒル彗星

C/2006 S5 ( Hill )

English version
Home page
Updated on January 24, 2009

---------------------------------------------------------------------

・ プロフィール

発見日 2006年9月28日
発見光度 18.6等
発見者 R. E. Hill (Catalina Sky Survey)

・ 写真集

・ 軌道要素

Epoch 2007 Dec. 6.0 TT = JDT 2454440.5
T 2007 Dec.  9.74919 TT                                 MPC
q   2.6304239            (2000.0)            P               Q
z  +0.0102607      Peri.  182.10927     -0.23580579     -0.95639719
 +/-0.0000081      Node   281.56301     +0.89416481     -0.14407332
e   0.9730100      Incl.   10.13145     +0.38061126     -0.25406158
From 191 observations 2006 Sept. 14-2007 Aug. 13, mean residual 0".60.

・ 星図

・ 光度変化

        m1 = 8.5 + 5 logΔ + 10.0 log r

---------------------------------------------------------------------

軌道要素はM.P.E.C. 2007-Q05に掲載されたものです。
星図は StellaNavigator Ver.2.0 for Windows (アストロアーツ 編著 / アスキー出版局刊) で作成したものです。
光度グラフはComet for Windowsで作成したものです。

---------------------------------------------------------------------

Copyright(C) Seiichi Yoshida (comet@aerith.net). All rights reserved.